STARLINK-38414, 100618

Orbit data source: Space-Track

STARLINK-38414, 100618 is a payload satellite owned by SpaceX/Seattle (US) in LEO that was launched on Sun, 06 Sep 2026 UTC launched from the Air Force Western Test Range (AFWTR). Payload-class satellites include a variety of spacecraft equipped with specific instruments for various scientific and technological missions. These include communications satellites like Starlink; space stations such as the ISS; scientific satellites like the Hubble; Earth observation satellites from companies like Planet Labs, Umbra, and HawkEye 360; GPS; miniature CubeSats for education and research; and military/defense satellites.

Not visible in the next 10 days
Identifier
100618, 2026-204D
Orbit
LEO
Country
Flag of USUS
Related business
Manufacturer
SpaceX/Seattle
Mission
Operational spacecraft
Bus & Motor
STARLINK V2MO, Unknown motor
Mass
575 kg wet, ~530 kg dry
Launch date (UTC)
2026-09-06 (5 days ago)
Launch vehicle
Unknown
Launch site
Air Force Western Test Range (AFWTR)
Object type
Payload
Rocket body
Debris
Shape & HBR
BOX + PAN, 17.7 m
Radar Cross Section
RCS unknown

Expand to show TLE details & history
Last TLE update: 21 hours ago

TLE from 21 hours ago
0 STARLINK-38414
1 A0618U 26204D   26253.56293302 -.01072252  39451-3 -15962-2 0  9998
2 A0618  69.9975 266.2264 0004768 276.3182  83.7488 16.04647576   648
Epoch: 2026-09-10T13:30Z
TLE epoch observation values (Epoch: 2026-09-10T13:30:37.412Z)
Latitude
-0.00007°
Longitude
73.97164°
Altitude
263.761 km
Speed
7.749 km/s
True Right ascension
17h 44m 54s
True Declination
0° 00' 00"
Sunlit
Object was in daylight at epoch
Visualization orbit readout
Latitude
Unknown
Longitude
Unknown
Altitude
Unknown
Speed
Unknown
Apparent Right ascension
Unknown
Apparent Declination
Unknown
Sunlit
N/A
Visualization observer readout
Local Sidereal Time
02:29:06
Azimuth
Unknown
Elevation
Unknown
Doppler factor
Unknown
Orbital elements
Apogee altitude
262.584 km
Perigee altitude
256.255 km
Semi-major axis
6,637.556 km
Eccentricity
0.00048
Inclination
69.9975°
RAAN
266.2264°
Arg. of periapsis
276.3182°
True anomaly
83.80312°
Mean anomaly
83.7488°
Eccentric anomaly
83.77596°
Mean motion
4.01357 °/min
Orbital period
89.7 mins
BSTAR
-0.0015962
Loading maneuver chart data...
Computing Atmospheric mass density...
Loading historical data...
Loading historical data...
Loading historical data...
Loading historical data...
Loading historical data...
Loading historical data...
Loading historical data...

Documentation

Showing up to 5 results
|